[[{"header":{"parameterUnit":"m.s-1","parameterCategory":1,"la1":30.2991,"la2":30.254,"lo1":-89.0895,"lo2":-89.0444,"dy":0.0017,"dx":0.0017,"nx":28,"ny":28,"refTime":"2025-02-12T09:00:00:Z","depth":0,"parameterNumber":2,"parameterNumberName":"U-component_of_WINDS"},"data":[0,0,0,0,0,0,0,0,0,0,0,0,0,0,0,0,0,0,0,0,0,0,0,0,0,0,0,0,0,0,0,0,0,0,0,0,0,0,0,0,0,0,0,0,0,0,0,0,0,0,0,0,0,0,0,0,0,0,3.4889,3.489,0,3.4971,3.4972,3.4973,3.4939,3.4937,3.4935,3.4933,3.5015,3.5019,3.5023,0,0,0,0,0,0,0,0,0,0,0,0,0,3.4704,3.4707,3.4889,3.489,3.4891,3.4971,3.4972,3.4973,3.4939,3.4937,3.4935,3.4932,3.5014,3.5018,3.5023,0,0,0,0,0,0,0,0,0,0,0,0,0,3.4785,3.4708,3.4889,3.4884,3.4884,3.497,3.4972,3.4973,3.494,3.4937,3.4934,3.4931,3.5012,3.5018,3.5024,3.5119,0,0,3.5042,3.5045,0,0,0,0,0,0,0,0,3.478,3.4791,3.4884,3.4884,3.4885,3.4942,3.4936,3.5022,3.4941,3.4919,3.4933,3.493,3.4993,3.5,3.5022,3.5123,3.5126,3.5043,3.5046,3.5049,3.505,0,0,0,0,0,0,0,3.4775,3.4788,3.4921,3.4885,3.4886,3.4878,3.4886,3.4952,3.4971,3.492,3.4918,3.4928,3.4993,3.5016,3.5023,3.5127,3.5042,3.5048,3.5051,3.5054,3.5313,3.5316,0,0,0,0,0,0,3.4769,3.4783,3.4919,3.4924,3.4824,3.4883,3.4893,3.4926,3.497,3.4974,3.4931,3.4926,3.5007,3.5017,3.5026,3.5142,3.5049,3.5054,3.5058,3.531,3.5314,3.5318,0,0,0,0,0,0,3.4765,3.4781,3.4915,3.4853,3.4869,3.489,3.4928,3.493,3.4953,3.4978,3.4981,3.4951,3.5005,3.5018,3.5097,3.5145,3.5057,3.5062,3.5306,3.5311,3.5316,3.5374,0,0,0,0,0,0,3.476,3.478,3.4816,3.4854,3.4873,3.4985,3.4931,3.4933,3.4964,3.4959,3.4998,3.5002,3.5004,3.5088,3.5103,3.5151,3.5067,3.5302,3.5308,3.5314,3.5368,3.538,3.5391,0,0,0,0,0,3.4753,3.4828,3.4818,3.4835,3.4919,3.4987,3.4998,3.5,3.4968,3.5004,3.5021,3.5001,3.5137,3.5097,3.5113,3.5164,3.5299,3.5307,3.5314,3.5363,3.5378,3.5391,0,0,0,0,0,0,3.4794,3.4833,3.4822,3.4912,3.4947,3.4982,3.5028,3.5015,3.5059,3.5053,3.5053,3.5062,3.5144,3.5161,3.5116,3.5259,3.5213,3.5224,3.5245,3.5259,3.5271,3.5265,3.5072,0,0,0,0,0,3.4814,3.4867,3.4898,3.4974,3.4992,3.5007,3.5037,3.5036,3.5072,3.5086,3.5108,3.5143,3.5194,3.5228,3.5276,3.5371,3.5379,3.5414,3.5425,3.5435,3.5444,3.5498,3.5514,3.5342,3.5342,3.5342,0,0,3.4854,3.4882,3.4915,3.4983,3.501,3.5065,3.502,3.5079,3.5121,3.5095,3.5171,3.5189,3.5229,3.5317,3.5356,3.5334,3.5494,3.5444,3.5451,3.5456,3.5507,3.5523,3.5538,3.5347,3.5346,3.5345,0,0,3.4956,3.4982,3.505,3.5078,3.5121,3.5131,3.5147,3.5185,3.5196,3.5273,3.5256,3.5305,3.5392,3.5422,3.5448,3.5565,3.5549,3.5581,3.5641,3.5693,3.5707,3.5719,3.5762,3.5777,3.5591,3.5591,3.5591,0,3.5001,3.5084,3.5085,3.5148,3.5179,3.516,3.5228,3.5256,3.5311,3.5333,3.5307,3.5419,3.5444,3.5539,3.5568,3.559,3.5609,3.5576,3.5705,3.5717,3.5728,3.5769,3.5785,3.5594,3.5594,3.5594,3.5593,0,3.5138,3.5196,3.5245,3.5301,3.5337,3.5402,3.5414,3.5451,3.5447,3.546,3.554,3.557,3.5625,3.5648,3.5644,3.5744,3.5729,3.5704,3.5658,3.5748,3.5787,3.5803,3.56,3.5598,3.5597,3.5596,0,0,3.5266,3.5324,3.5342,3.5369,3.5415,3.546,3.5525,3.558,3.5612,3.5652,3.5707,3.5783,3.5761,3.5792,3.5791,3.5837,3.593,3.5807,3.5808,3.5829,3.6044,3.6063,3.6081,3.592,3.5923,3.5925,3.6041,0,3.5373,3.5487,3.5492,3.5597,3.5651,3.5636,3.5692,3.5727,3.5742,3.5791,3.5806,3.5861,3.5827,3.5846,3.5891,3.5909,3.5973,3.5901,3.5971,3.5974,3.5962,3.6101,3.612,3.6228,3.6056,3.6059,3.606,0,3.5512,3.5558,3.5669,3.571,3.5733,3.5784,3.5836,3.5883,3.5923,3.593,3.5966,3.5959,3.6027,3.5979,3.6072,3.6023,3.6052,3.6066,3.607,3.6077,3.6022,3.6112,3.6262,3.6279,3.6084,3.6082,3.608,0,3.5596,3.5686,3.5764,3.5787,3.5836,3.5873,3.5895,3.5933,3.5966,3.6012,3.6034,3.6087,3.6116,3.6157,3.6165,3.6129,3.6259,3.6211,3.6268,3.6268,3.6296,3.6294,3.6454,3.6314,3.6314,3.6313,3.6313,0,3.5715,3.5784,3.5803,3.5851,3.5928,3.5933,3.6009,3.6029,3.6063,3.6115,3.6104,3.6153,3.6161,3.6212,3.6219,3.6297,3.6309,3.6318,3.6319,3.6319,3.6318,3.6338,3.6331,3.6318,3.6317,3.6316,3.6315,0,3.5822,3.5837,3.5922,3.5963,3.5975,3.603,3.6065,3.6112,3.6126,3.6193,3.6209,3.6231,3.6291,3.6304,3.6374,3.6379,3.6472,3.6465,3.6459,3.6458,3.6514,3.6509,3.6693,3.6718,3.6561,3.6563,3.6564,0,3.5896,3.5949,3.5997,3.6032,3.6056,3.6112,3.6147,3.6155,3.6192,3.6244,3.6284,3.6344,3.6391,3.6488,3.6511,3.6566,3.6561,3.6621,3.6568,3.6568,3.6563,3.656,3.6566,3.6631,3.6633,3.6634,3.6635,0,3.6028,3.6034,3.6085,3.6141,3.6183,3.6227,3.6268,3.6297,3.6311,3.6353,3.6415,3.6453,3.6526,3.6586,3.6641,3.6664,3.6653,3.6652,3.6668,3.6669,3.6664,3.6669,3.6487,3.6648,3.6646,3.6645,3.6645,3.6644,3.6122,3.6169,3.6211,3.6269,3.6302,3.6341,3.6388,3.6409,3.6461,3.6523,3.6524,3.6593,3.6633,3.6707,3.6734,3.6787,3.6768,3.6791,3.6797,3.6803,3.6809,3.6655,3.6797,3.6797,3.6797,3.6796,3.6796,0,3.6254,3.6281,3.6335,3.6394,3.644,3.6427,3.6473,3.6512,3.6573,3.6612,3.6661,3.6733,3.6791,3.682,3.6878,3.6915,3.6912,3.693,3.6928,3.6934,3.6822,3.6803,3.6932,3.6932,3.6932,3.6932,3.6932,3.6932,3.6329,3.6408,3.642,3.6516,3.6542,3.661,3.6637,3.6674,3.6706,3.6788,3.6837,3.6855,3.6891,3.6952,3.7005,3.7012,3.7034,3.7056,3.706,3.6955,3.6941,3.6928,3.691,3.706,3.706,3.7167,3.7168,3.7169]},{"header":{"parameterUnit":"m.s-1","parameterCategory":1,"la1":30.2991,"la2":30.254,"lo1":-89.0895,"lo2":-89.0444,"dy":0.0017,"dx":0.0017,"nx":28,"ny":28,"refTime":"2025-02-12T09:00:00:Z","depth":0,"parameterNumber":3,"parameterNumberName":"V-component_of_WINDS"},"data":[0,0,0,0,0,0,0,0,0,0,0,0,0,0,0,0,0,0,0,0,0,0,0,0,0,0,0,0,0,0,0,0,0,0,0,0,0,0,0,0,0,0,0,0,0,0,0,0,0,0,0,0,0,0,0,0,0,0,-7.8067,-7.8069,0,-7.8228,-7.823,-7.8232,-7.8192,-7.8189,-7.8186,-7.8183,-7.8345,-7.8352,-7.8359,0,0,0,0,0,0,0,0,0,0,0,0,0,-7.7726,-7.7732,-7.8067,-7.8069,-7.8071,-7.8228,-7.823,-7.8232,-7.8192,-7.8189,-7.8185,-7.8181,-7.8342,-7.8351,-7.8359,0,0,0,0,0,0,0,0,0,0,0,0,0,-7.7879,-7.7734,-7.8067,-7.807,-7.8072,-7.8227,-7.823,-7.8233,-7.8193,-7.8189,-7.8184,-7.818,-7.8339,-7.835,-7.8361,-7.8521,0,0,-7.8394,-7.8398,0,0,0,0,0,0,0,0,-7.787,-7.7891,-7.8068,-7.807,-7.8073,-7.8185,-7.8169,-7.8329,-7.8194,-7.8147,-7.8183,-7.8177,-7.8295,-7.8309,-7.835,-7.8529,-7.8535,-7.8395,-7.8401,-7.8406,-7.8409,0,0,0,0,0,0,0,-7.786,-7.7884,-7.8131,-7.807,-7.8074,-7.8064,-7.8081,-7.8199,-7.8245,-7.8151,-7.8149,-7.8168,-7.8296,-7.8339,-7.8353,-7.8538,-7.8394,-7.8404,-7.8411,-7.8415,-7.886,-7.8866,0,0,0,0,0,0,-7.7847,-7.7876,-7.8125,-7.8135,-7.7958,-7.8074,-7.8092,-7.8154,-7.8244,-7.8253,-7.8172,-7.8166,-7.8323,-7.8341,-7.8359,-7.8555,-7.8406,-7.8416,-7.8422,-7.8855,-7.8862,-7.8867,0,0,0,0,0,0,-7.784,-7.787,-7.8119,-7.8005,-7.8036,-7.8085,-7.8154,-7.8159,-7.8203,-7.826,-7.8268,-7.8208,-7.832,-7.8343,-7.8482,-7.856,-7.8421,-7.8431,-7.8849,-7.8857,-7.8865,-7.8947,0,0,0,0,0,0,-7.783,-7.7868,-7.7929,-7.8007,-7.8042,-7.824,-7.8159,-7.8166,-7.8222,-7.8216,-7.8296,-7.8305,-7.8318,-7.8466,-7.8493,-7.8572,-7.8439,-7.8842,-7.8853,-7.8862,-7.8937,-7.8957,-7.8973,0,0,0,0,0,-7.7818,-7.7944,-7.7932,-7.7962,-7.812,-7.8244,-7.8265,-7.8278,-7.8229,-7.8291,-7.8328,-7.8302,-7.8547,-7.8481,-7.851,-7.8594,-7.8837,-7.885,-7.8861,-7.8929,-7.8953,-7.8973,0,0,0,0,0,0,-7.7871,-7.7954,-7.7942,-7.8096,-7.8164,-7.8237,-7.8316,-7.8302,-7.8384,-7.8374,-7.8387,-7.8406,-7.8548,-7.8585,-7.8509,-7.8756,-7.8685,-7.8704,-7.8727,-7.8749,-7.8767,-7.8755,-7.8448,0,0,0,0,0,-7.7902,-7.7996,-7.8063,-7.8193,-7.8228,-7.8267,-7.8321,-7.8326,-7.8396,-7.8424,-7.8471,-7.854,-7.8633,-7.8693,-7.8781,-7.8943,-7.8961,-7.9016,-7.9033,-7.9048,-7.9064,-7.9155,-7.9181,-7.8907,-7.8907,-7.8907,0,0,-7.7964,-7.8021,-7.8079,-7.8205,-7.8258,-7.8356,-7.829,-7.8396,-7.8469,-7.844,-7.8574,-7.8612,-7.8689,-7.8841,-7.891,-7.8876,-7.9144,-7.9063,-7.9074,-7.9082,-7.917,-7.9196,-7.9219,-7.8915,-7.8914,-7.8912,0,0,-7.8128,-7.818,-7.8295,-7.8351,-7.8433,-7.8458,-7.8486,-7.8563,-7.8588,-7.8723,-7.8705,-7.8792,-7.895,-7.9007,-7.9057,-7.9248,-7.9228,-7.9276,-7.937,-7.9459,-7.948,-7.9499,-7.9569,-7.9594,-7.9292,-7.9292,-7.9292,0,-7.8194,-7.8342,-7.8356,-7.8465,-7.8522,-7.8503,-7.862,-7.8673,-7.8779,-7.8819,-7.878,-7.8982,-7.9032,-7.9199,-7.9246,-7.9286,-7.932,-7.9267,-7.9476,-7.9496,-7.9514,-7.958,-7.9607,-7.9298,-7.9297,-7.9296,-7.9296,0,-7.8421,-7.8524,-7.8607,-7.8713,-7.8779,-7.8892,-7.8924,-7.899,-7.899,-7.902,-7.9161,-7.9221,-7.9323,-7.9363,-7.9363,-7.9531,-7.9508,-7.9473,-7.9401,-7.9545,-7.9608,-7.9634,-7.9305,-7.9303,-7.9302,-7.93,0,0,-7.8619,-7.8735,-7.8765,-7.8815,-7.8906,-7.8986,-7.9099,-7.92,-7.9257,-7.9332,-7.9428,-7.9565,-7.9534,-7.9591,-7.9598,-7.9676,-7.9827,-7.9632,-7.9634,-7.9667,-8.0018,-8.0044,-8.0074,-7.9815,-7.982,-7.9824,-8.0012,0,-7.8792,-7.8992,-7.901,-7.919,-7.9286,-7.9272,-7.9371,-7.9438,-7.947,-7.9557,-7.9592,-7.969,-7.9641,-7.9675,-7.9752,-7.9792,-7.9897,-7.9779,-7.9905,-7.9909,-7.9886,-8.0106,-8.0134,-8.0308,-8.0037,-8.0041,-8.0044,0,-7.9019,-7.9104,-7.9294,-7.9375,-7.9416,-7.9505,-7.9601,-7.9684,-7.9761,-7.9779,-7.9846,-7.9843,-7.9961,-7.9887,-8.005,-7.9969,-8.0022,-8.005,-8.0057,-8.0069,-7.9985,-8.0125,-8.0364,-8.0391,-8.0082,-8.0079,-8.0076,0,-7.9147,-7.9308,-7.9444,-7.9486,-7.9584,-7.9647,-7.9691,-7.9763,-7.9824,-7.9909,-7.9949,-8.0045,-8.0098,-8.0173,-8.0198,-8.0141,-8.0362,-8.0288,-8.0381,-8.0381,-8.0427,-8.0424,-8.0679,-8.0461,-8.046,-8.046,-8.0459,0,-7.9338,-7.9455,-7.9503,-7.9586,-7.9718,-7.9739,-7.9869,-7.9909,-7.9974,-8.0066,-8.0059,-8.0145,-8.0172,-8.0263,-8.0284,-8.0417,-8.0441,-8.046,-8.0464,-8.0461,-8.0458,-8.0495,-8.0484,-8.0467,-8.0465,-8.0464,-8.0463,0,-7.9502,-7.9539,-7.9686,-7.9768,-7.9792,-7.9885,-7.9956,-8.0037,-8.0069,-8.0185,-8.0214,-8.0265,-8.0372,-8.0405,-8.0533,-8.0547,-8.0705,-8.0697,-8.0679,-8.0679,-8.0771,-8.0762,-8.1058,-8.1099,-8.0854,-8.0856,-8.0858,0,-7.9622,-7.9712,-7.9805,-7.9867,-7.9914,-8.0012,-8.0076,-8.0101,-8.0167,-8.0265,-8.0334,-8.0441,-8.0528,-8.0701,-8.0749,-8.0849,-8.0844,-8.0942,-8.0859,-8.0855,-8.0848,-8.0842,-8.0852,-8.0957,-8.0959,-8.0961,-8.0963,0,-7.983,-7.9845,-7.9937,-8.0037,-8.0114,-8.0193,-8.027,-8.032,-8.0357,-8.0432,-8.0543,-8.0611,-8.0745,-8.0852,-8.0954,-8.0999,-8.0989,-8.0989,-8.1016,-8.1014,-8.1,-8.1011,-8.0722,-8.0982,-8.098,-8.0979,-8.0978,-8.0977,-7.9976,-8.0057,-8.0137,-8.0241,-8.0302,-8.0375,-8.0456,-8.05,-8.0593,-8.0705,-8.0715,-8.0835,-8.0914,-8.105,-8.1101,-8.1196,-8.1168,-8.1207,-8.1217,-8.1226,-8.1234,-8.0986,-8.1215,-8.1214,-8.1214,-8.1214,-8.1213,0,-8.0186,-8.0237,-8.0333,-8.0442,-8.0524,-8.0509,-8.0594,-8.0664,-8.0771,-8.0845,-8.0932,-8.1062,-8.1167,-8.1225,-8.133,-8.1396,-8.1394,-8.1423,-8.1418,-8.1429,-8.1252,-8.1219,-8.1423,-8.1423,-8.1423,-8.1423,-8.1423,-8.1423,-8.0304,-8.0441,-8.0466,-8.0635,-8.0685,-8.0805,-8.0855,-8.0923,-8.0983,-8.1129,-8.1216,-8.1255,-8.1324,-8.1435,-8.1531,-8.1546,-8.1585,-8.1618,-8.1629,-8.1463,-8.1441,-8.1421,-8.139,-8.1626,-8.1626,-8.1799,-8.18,-8.1801]}]]